OK1VCF-6 Weather Reports


time (UTC)temp
F
wind
direction
speed
knots
gust
knots
rain 1hr
in
rain 24hr
in
rain mn
in
humidity
%
barometer
mb
20260905173141 58 0 0.0 0.0 0.00 0.00 0.00 74 1021.5
20260905173051 58 0 0.0 0.0 0.00 0.00 0.00 74 1021.5
20260905161548 62 0 0.0 0.0 0.00 0.00 0.00 68 1021.0
20260905160052 62 0 0.0 0.0 0.00 0.00 0.00 68 1020.8
20260905153049 62 0 0.0 0.0 0.00 0.00 0.00 72 1020.6
20260905151544 64 0 0.0 0.0 0.00 0.00 0.00 66 1020.8
20260905143048 64 0 0.0 0.0 0.00 0.00 0.00 64 1020.5
20260905140048 62 0 0.0 0.0 0.00 0.00 0.00 70 1020.6
20260905131543 62 0 0.0 0.0 0.00 0.00 0.00 72 1020.2
20260905131539 62 0 0.0 0.0 0.00 0.00 0.00 72 1020.2
20260905130044 62 0 0.0 0.0 0.00 0.00 0.00 68 1020.4
20260905130039 62 0 0.0 0.0 0.00 0.00 0.00 68 1020.4
20260905124540 63 0 0.0 0.0 0.00 0.00 0.00 72 1020.4
20260905123502 61 0 0.0 0.0 0.00 0.00 0.00 72 1020.4
20260905123037 61 0 0.0 0.0 0.00 0.00 0.00 72 1020.4
20260905114534 62 0 0.0 0.0 0.00 0.00 0.00 72 1020.6
20260905111539 62 0 0.0 0.0 0.00 0.00 0.00 72 1020.6
20260905111534 62 0 0.0 0.0 0.00 0.00 0.00 72 1020.6
20260905104630 60 0 0.0 0.0 0.00 0.00 0.00 76 1020.6
20260905104532 60 0 0.0 0.0 0.00 0.00 0.00 76 1020.6
20260905093028 60 0 0.0 0.0 0.00 0.00 0.00 81 1020.2
20260905091527 59 0 0.0 0.0 0.00 0.00 0.00 84 1020.2
20260905090027 60 0 0.0 0.0 0.00 0.00 0.00 84 1020.2
20260905083158 59 0 0.0 0.0 0.00 0.00 0.00 88 1019.8
20260905083025 59 0 0.0 0.0 0.00 0.00 0.00 88 1019.8
20260905082137 58 0 0.0 0.0 0.00 0.00 0.00 88 1019.8
20260905081524 58 0 0.0 0.0 0.00 0.00 0.00 88 1019.8
20260905080023 58 0 0.0 0.0 0.00 0.00 0.00 90 1019.8
20260905071640 57 0 0.0 0.0 0.00 0.00 0.00 91 1019.5
20260905071521 57 0 0.0 0.0 0.00 0.00 0.00 91 1019.5
20260905070023 56 0 0.0 0.0 0.00 0.00 0.00 92 1019.6
20260905064521 56 0 0.0 0.0 0.00 0.00 0.00 92 1019.4
20260905063247 56 0 0.0 0.0 0.00 0.00 0.00 90 1019.0
20260905063022 56 0 0.0 0.0 0.00 0.00 0.00 90 1019.0
20260905061523 55 0 0.0 0.0 0.00 0.00 0.00 91 1019.0
20260905060018 54 0 0.0 0.0 0.00 0.00 0.00 90 1019.0
20260905054736 54 0 0.0 0.0 0.00 0.00 0.00 92 1018.8
20260905054517 54 0 0.0 0.0 0.00 0.00 0.00 92 1018.8
20260905051516 55 0 0.0 0.0 0.00 0.00 0.00 94 1018.4
20260905050250 54 0 0.0 0.0 0.00 0.00 0.00 94 1018.2
20260905050015 54 0 0.0 0.0 0.00 0.00 0.00 94 1018.2
20260905044514 54 0 0.0 0.0 0.00 0.00 0.00 94 1017.8
20260905043346 54 0 0.0 0.0 0.00 0.00 0.00 94 1018.0
20260905043016 54 0 0.0 0.0 0.00 0.00 0.00 94 1018.0
20260905041604 55 0 0.0 0.0 0.00 0.00 0.00 94 1017.9
20260905041516 55 0 0.0 0.0 0.00 0.00 0.00 94 1017.9
20260905035152 55 0 0.0 0.0 0.00 0.00 0.00 94 1017.9
20260905034513 55 0 0.0 0.0 0.00 0.00 0.00 94 1017.9
20260905031645 55 0 0.0 0.0 0.00 0.00 0.00 94 1017.2
20260905031515 55 0 0.0 0.0 0.00 0.00 0.00 94 1017.2
20260905021507 54 0 0.0 0.0 0.00 0.00 0.00 92 1017.2
20260905020042 55 0 0.0 0.0 0.00 0.00 0.00 92 1016.5
20260905020007 55 0 0.0 0.0 0.00 0.00 0.00 92 1016.5
20260905011507 55 0 0.0 0.0 0.00 0.00 0.00 92 1016.2
20260905003004 56 0 0.0 0.0 0.00 0.00 0.00 92 1016.6
20260905001503 56 0 0.0 0.0 0.00 0.00 0.00 93 1016.5
20260905000001 56 0 0.0 0.0 0.00 0.00 0.00 94 1016.3
20260904231606 58 0 0.0 0.0 0.00 0.00 0.00 93 1015.4
20260904231500 58 0 0.0 0.0 0.00 0.00 0.00 93 1015.4
20260904230250 58 0 0.0 0.0 0.00 0.00 0.00 92 1015.8
20260904225959 58 0 0.0 0.0 0.00 0.00 0.00 92 1015.8
20260904220123 61 0 0.0 0.0 0.00 0.00 0.00 87 1015.4
20260904215955 61 0 0.0 0.0 0.00 0.00 0.00 87 1015.4
20260904212954 63 0 0.0 0.0 0.00 0.00 0.00 84 1014.6
20260904205953 64 0 0.0 0.0 0.00 0.00 0.00 82 1013.9
20260904204746 63 0 0.0 0.0 0.00 0.00 0.00 84 1013.8
20260904204452 63 0 0.0 0.0 0.00 0.00 0.00 84 1013.8
20260904202951 63 0 0.0 0.0 0.00 0.00 0.00 84 1013.8
20260904201451 63 0 0.0 0.0 0.00 0.00 0.00 83 1014.0